[[{"header":{"parameterUnit":"m.s-1","parameterCategory":1,"la1":30.2991,"la2":30.254,"lo1":-89.0895,"lo2":-89.0444,"dy":0.0017,"dx":0.0017,"nx":28,"ny":28,"refTime":"2024-03-12T03:00:00:Z","depth":0,"parameterNumber":2,"parameterNumberName":"U-component_of_WINDS"},"data":[0,0,0,0,0,0,0,0,0,0,0,0,0,0,0,0,0,0,0,0,0,0,0,0,0,0,0,0,0,0,0,0,0,0,0,0,0,0,0,0,0,0,0,0,0,0,0,0,0,0,0,0,0,0,0,0,0,0,-2.021,-2.0209,0,-2.0195,-2.0195,-2.0195,-2.0139,-2.0137,-2.0136,-2.0135,-2.0121,-2.0122,-2.0122,0,0,0,0,0,0,0,0,0,0,0,0,0,-2.0191,-2.0192,-2.021,-2.0209,-2.0209,-2.0195,-2.0195,-2.0195,-2.0139,-2.0137,-2.0136,-2.0134,-2.012,-2.0121,-2.0122,0,0,0,0,0,0,0,0,0,0,0,0,0,-2.019,-2.0192,-2.021,-2.018,-2.0177,-2.0195,-2.0195,-2.0195,-2.0139,-2.0137,-2.0135,-2.0134,-2.012,-2.0121,-2.0123,-2.0169,0,0,-2.0126,-2.0127,0,0,0,0,0,0,0,0,-2.019,-2.0191,-2.0184,-2.0182,-2.0179,-2.0167,-2.0183,-2.0186,-2.014,-2.0154,-2.0135,-2.0133,-2.0138,-2.0137,-2.0139,-2.0168,-2.0168,-2.0126,-2.0127,-2.0128,-2.0128,0,0,0,0,0,0,0,-2.019,-2.0191,-2.0204,-2.0184,-2.0181,-2.0168,-2.0165,-2.0184,-2.0157,-2.0152,-2.0148,-2.0147,-2.0136,-2.0138,-2.0138,-2.0168,-2.0126,-2.0128,-2.0128,-2.0129,-2.0237,-2.0239,0,0,0,0,0,0,-2.0194,-2.0192,-2.0204,-2.0203,-2.018,-2.017,-2.0167,-2.0173,-2.0156,-2.0152,-2.0149,-2.0145,-2.0137,-2.0137,-2.0137,-2.0192,-2.0128,-2.0129,-2.013,-2.0235,-2.0237,-2.024,0,0,0,0,0,0,-2.0194,-2.0196,-2.0205,-2.0196,-2.0197,-2.0172,-2.0179,-2.0173,-2.0175,-2.0154,-2.0149,-2.0156,-2.0135,-2.0136,-2.0162,-2.019,-2.0129,-2.0131,-2.0232,-2.0236,-2.0238,-2.03,0,0,0,0,0,0,-2.0194,-2.0196,-2.0213,-2.0197,-2.0197,-2.0229,-2.018,-2.0174,-2.0177,-2.0172,-2.0159,-2.0155,-2.0134,-2.0161,-2.0163,-2.0191,-2.0132,-2.023,-2.0234,-2.0237,-2.0295,-2.0305,-2.0313,0,0,0,0,0,-2.0193,-2.023,-2.0214,-2.0216,-2.0217,-2.0231,-2.0231,-2.0205,-2.018,-2.0197,-2.0184,-2.0155,-2.0187,-2.0164,-2.0166,-2.0195,-2.0228,-2.0233,-2.0237,-2.0291,-2.0303,-2.0313,0,0,0,0,0,0,-2.0249,-2.0228,-2.0209,-2.0242,-2.0239,-2.0221,-2.0241,-2.0218,-2.0222,-2.0217,-2.0186,-2.0183,-2.0214,-2.0207,-2.0181,-2.024,-2.0203,-2.0208,-2.0243,-2.0254,-2.0263,-2.0263,-2.0133,0,0,0,0,0,-2.0266,-2.0278,-2.0259,-2.0289,-2.0289,-2.0266,-2.0271,-2.0252,-2.0247,-2.0245,-2.0234,-2.0231,-2.024,-2.0247,-2.0254,-2.0295,-2.0292,-2.0316,-2.0325,-2.0332,-2.0337,-2.0359,-2.037,-2.0255,-2.0255,-2.0255,0,0,-2.0299,-2.0289,-2.0298,-2.0301,-2.0296,-2.031,-2.0265,-2.0281,-2.0292,-2.0248,-2.0272,-2.0264,-2.0259,-2.0293,-2.0307,-2.0288,-2.0369,-2.0338,-2.0344,-2.0345,-2.0365,-2.0376,-2.0386,-2.0259,-2.0258,-2.0257,0,0,-2.0367,-2.036,-2.0386,-2.0383,-2.0376,-2.0361,-2.0368,-2.0355,-2.0348,-2.0372,-2.034,-2.0352,-2.0369,-2.0367,-2.0368,-2.044,-2.0414,-2.0443,-2.0489,-2.0511,-2.052,-2.0528,-2.0554,-2.0563,-2.0448,-2.0448,-2.0448,0,-2.0409,-2.0428,-2.0402,-2.0421,-2.0424,-2.0386,-2.0412,-2.0411,-2.0407,-2.041,-2.0389,-2.0411,-2.0405,-2.0438,-2.0456,-2.0458,-2.0465,-2.0443,-2.0521,-2.0529,-2.0535,-2.056,-2.057,-2.0452,-2.0451,-2.0451,-2.0451,0,-2.0481,-2.0495,-2.0517,-2.0515,-2.0521,-2.0543,-2.0521,-2.053,-2.0512,-2.05,-2.0526,-2.0518,-2.0524,-2.0531,-2.0513,-2.0563,-2.0551,-2.0526,-2.0488,-2.055,-2.0573,-2.0582,-2.0457,-2.0456,-2.0455,-2.0454,0,0,-2.058,-2.0566,-2.0574,-2.0574,-2.0566,-2.0577,-2.0599,-2.0605,-2.0614,-2.0614,-2.0632,-2.0649,-2.0627,-2.0628,-2.061,-2.063,-2.0688,-2.0602,-2.0602,-2.0618,-2.0744,-2.0762,-2.0773,-2.0672,-2.0674,-2.0675,-2.0744,0,-2.0645,-2.0681,-2.0659,-2.0699,-2.0713,-2.0679,-2.0699,-2.0697,-2.0687,-2.0698,-2.0687,-2.07,-2.0669,-2.067,-2.0688,-2.0677,-2.0713,-2.0672,-2.0689,-2.069,-2.069,-2.0785,-2.0804,-2.0869,-2.0753,-2.0754,-2.0755,0,-2.0724,-2.0728,-2.077,-2.0761,-2.0766,-2.0784,-2.0789,-2.08,-2.0798,-2.079,-2.0793,-2.0771,-2.0794,-2.0758,-2.0789,-2.0762,-2.0768,-2.0765,-2.0767,-2.0766,-2.0725,-2.0787,-2.0889,-2.0899,-2.0769,-2.0768,-2.0767,0,-2.0793,-2.0809,-2.0836,-2.0837,-2.0828,-2.0841,-2.0838,-2.0834,-2.084,-2.0845,-2.0849,-2.0857,-2.0861,-2.0868,-2.085,-2.0825,-2.0884,-2.0846,-2.0878,-2.0879,-2.0891,-2.089,-2.0996,-2.0897,-2.0896,-2.0896,-2.0896,0,-2.0866,-2.0893,-2.0867,-2.0884,-2.0913,-2.089,-2.092,-2.0913,-2.0911,-2.0926,-2.0898,-2.0914,-2.0889,-2.0902,-2.0888,-2.0917,-2.0919,-2.0914,-2.0909,-2.0916,-2.0916,-2.0918,-2.0913,-2.0899,-2.0898,-2.0898,-2.0897,0,-2.0947,-2.0931,-2.0958,-2.0948,-2.0946,-2.0968,-2.096,-2.0976,-2.0965,-2.0986,-2.0989,-2.0973,-2.0988,-2.0971,-2.0984,-2.0974,-2.1013,-2.1003,-2.1014,-2.1011,-2.1044,-2.1041,-2.1153,-2.1167,-2.106,-2.1061,-2.1062,0,-2.0994,-2.1014,-2.1007,-2.1015,-2.1014,-2.1028,-2.1034,-2.1013,-2.1021,-2.1022,-2.1038,-2.1051,-2.1059,-2.1085,-2.1074,-2.1085,-2.1074,-2.1113,-2.1075,-2.1082,-2.1075,-2.1073,-2.1076,-2.112,-2.1122,-2.1123,-2.1123,0,-2.108,-2.1072,-2.1082,-2.109,-2.1099,-2.1104,-2.1107,-2.1116,-2.1094,-2.1105,-2.112,-2.1127,-2.1142,-2.1155,-2.1163,-2.1161,-2.1139,-2.1136,-2.1144,-2.115,-2.1155,-2.1153,-2.1034,-2.1133,-2.1132,-2.1131,-2.1131,-2.113,-2.1146,-2.1162,-2.116,-2.1173,-2.1174,-2.1178,-2.1193,-2.1185,-2.1197,-2.1207,-2.1194,-2.1213,-2.1213,-2.1222,-2.1223,-2.1238,-2.1222,-2.1233,-2.1236,-2.1239,-2.1244,-2.1154,-2.124,-2.124,-2.1239,-2.1239,-2.1239,0,-2.123,-2.1228,-2.124,-2.1246,-2.1257,-2.1236,-2.124,-2.125,-2.1267,-2.1269,-2.1279,-2.1297,-2.1311,-2.1303,-2.1315,-2.1329,-2.132,-2.1333,-2.1331,-2.1331,-2.1258,-2.125,-2.134,-2.134,-2.134,-2.134,-2.134,-2.134,-2.1275,-2.1303,-2.1295,-2.1323,-2.1321,-2.1339,-2.1343,-2.1348,-2.1349,-2.1371,-2.1382,-2.1378,-2.1376,-2.1388,-2.1401,-2.1398,-2.1404,-2.1421,-2.1415,-2.1346,-2.1336,-2.1327,-2.1319,-2.1422,-2.1422,-2.1486,-2.1487,-2.1487]},{"header":{"parameterUnit":"m.s-1","parameterCategory":1,"la1":30.2991,"la2":30.254,"lo1":-89.0895,"lo2":-89.0444,"dy":0.0017,"dx":0.0017,"nx":28,"ny":28,"refTime":"2024-03-12T03:00:00:Z","depth":0,"parameterNumber":3,"parameterNumberName":"V-component_of_WINDS"},"data":[0,0,0,0,0,0,0,0,0,0,0,0,0,0,0,0,0,0,0,0,0,0,0,0,0,0,0,0,0,0,0,0,0,0,0,0,0,0,0,0,0,0,0,0,0,0,0,0,0,0,0,0,0,0,0,0,0,0,3.2989,3.299,0,3.3017,3.3017,3.3018,3.3061,3.3061,3.3062,3.3063,3.3088,3.3088,3.3088,0,0,0,0,0,0,0,0,0,0,0,0,0,3.2971,3.2971,3.2989,3.299,3.299,3.3017,3.3017,3.3018,3.306,3.3061,3.3062,3.3063,3.3088,3.3088,3.3088,0,0,0,0,0,0,0,0,0,0,0,0,0,3.2986,3.2971,3.2989,3.3015,3.3017,3.3017,3.3017,3.3018,3.306,3.3061,3.3063,3.3064,3.3088,3.3088,3.3088,3.3064,0,0,3.3087,3.3087,0,0,0,0,0,0,0,0,3.2986,3.2987,3.3011,3.3013,3.3016,3.3037,3.302,3.3033,3.306,3.3044,3.3063,3.3064,3.307,3.3071,3.3074,3.3065,3.3066,3.3087,3.3087,3.3087,3.3087,0,0,0,0,0,0,0,3.2984,3.2986,3.3,3.3011,3.3014,3.3024,3.3027,3.3023,3.305,3.3045,3.3048,3.3051,3.3071,3.3074,3.3074,3.3066,3.3087,3.3087,3.3087,3.3087,3.304,3.3039,0,0,0,0,0,0,3.298,3.2985,3.2999,3.3001,3.3003,3.3023,3.3027,3.3029,3.305,3.3054,3.305,3.3053,3.3073,3.3074,3.3075,3.305,3.3087,3.3087,3.3087,3.3041,3.304,3.3039,0,0,0,0,0,0,3.2979,3.2981,3.2998,3.2994,3.2997,3.3022,3.3024,3.3029,3.3031,3.3054,3.3058,3.3048,3.3074,3.3076,3.3067,3.3051,3.3087,3.3087,3.3043,3.3041,3.3039,3.2997,0,0,0,0,0,0,3.2979,3.298,3.2972,3.2993,3.2997,3.299,3.3023,3.3028,3.3031,3.3035,3.3053,3.3057,3.3075,3.3067,3.3067,3.3052,3.3087,3.3044,3.3042,3.304,3.3,3.2994,3.2989,0,0,0,0,0,3.2978,3.2958,3.2971,3.2973,3.2987,3.2989,3.2991,3.3013,3.303,3.3021,3.3036,3.3056,3.3053,3.3065,3.3066,3.305,3.3045,3.3043,3.304,3.3003,3.2995,3.2989,0,0,0,0,0,0,3.2932,3.2961,3.2976,3.2963,3.2973,3.2996,3.2986,3.3005,3.3009,3.3013,3.304,3.3043,3.3031,3.304,3.3053,3.3029,3.3052,3.305,3.3024,3.3017,3.3012,3.301,3.3087,0,0,0,0,0,3.2921,3.2921,3.2946,3.2931,3.2936,3.296,3.2961,3.2978,3.2989,3.2993,3.3008,3.3017,3.3018,3.3018,3.302,3.3002,3.3006,3.2991,3.2986,3.2981,3.2979,3.297,3.2964,3.303,3.303,3.303,0,0,3.2897,3.2913,3.2911,3.2923,3.2933,3.2931,3.2963,3.296,3.2959,3.2993,3.2986,3.2996,3.3008,3.2995,3.299,3.3002,3.2962,3.2978,3.2974,3.2974,3.2967,3.2961,3.2955,3.3028,3.3029,3.3029,0,0,3.2853,3.2865,3.2855,3.2865,3.288,3.2896,3.2894,3.2914,3.2923,3.2917,3.2942,3.2941,3.2942,3.295,3.2954,3.2915,3.2933,3.2914,3.2886,3.2877,3.2872,3.2868,3.2854,3.2849,3.2912,3.2912,3.2911,0,3.2821,3.2821,3.2847,3.2843,3.2848,3.288,3.287,3.2877,3.2892,3.2894,3.2908,3.2911,3.2921,3.291,3.2901,3.2903,3.2901,3.2912,3.2871,3.2867,3.2863,3.285,3.2845,3.2909,3.2909,3.291,3.291,0,3.2781,3.2781,3.2771,3.2786,3.2789,3.2782,3.2806,3.2807,3.2823,3.2838,3.2831,3.2845,3.2851,3.285,3.2865,3.2841,3.2849,3.2866,3.289,3.2854,3.2842,3.2837,3.2906,3.2907,3.2907,3.2908,0,0,3.2708,3.2739,3.2735,3.2743,3.2763,3.2762,3.2757,3.2764,3.2764,3.2773,3.2769,3.277,3.2787,3.2791,3.2808,3.2801,3.2769,3.2819,3.282,3.281,3.2744,3.2731,3.2725,3.2782,3.2781,3.278,3.2743,0,3.2669,3.2662,3.2686,3.2672,3.2672,3.2703,3.2698,3.2709,3.2723,3.2724,3.2739,3.274,3.2762,3.2765,3.2759,3.2774,3.2756,3.2777,3.2777,3.2777,3.2774,3.2719,3.2704,3.2669,3.2739,3.2738,3.2738,0,3.2621,3.2629,3.2616,3.2638,3.2639,3.2634,3.2643,3.2644,3.2658,3.2668,3.2674,3.2694,3.269,3.2713,3.2707,3.2721,3.2722,3.273,3.2729,3.273,3.2755,3.2718,3.2658,3.2653,3.2731,3.2731,3.2732,0,3.257,3.2578,3.2571,3.2577,3.2602,3.2598,3.2608,3.2622,3.2626,3.2633,3.2636,3.2642,3.2646,3.265,3.2671,3.2686,3.2662,3.2687,3.2671,3.267,3.2664,3.2664,3.2604,3.2665,3.2665,3.2665,3.2665,0,3.2523,3.2513,3.2549,3.2545,3.2536,3.2563,3.2553,3.2566,3.2579,3.2578,3.2604,3.2602,3.263,3.2631,3.2647,3.264,3.2641,3.2649,3.2654,3.2647,3.2646,3.2648,3.2651,3.2664,3.2664,3.2664,3.2664,0,3.2464,3.2487,3.2482,3.2507,3.2513,3.2505,3.2526,3.2523,3.2539,3.2537,3.2538,3.2563,3.2565,3.2587,3.2594,3.2605,3.2591,3.26,3.2587,3.259,3.2573,3.2574,3.2511,3.2505,3.257,3.2569,3.2569,0,3.2432,3.2426,3.2451,3.2453,3.2462,3.2464,3.2468,3.2495,3.2498,3.2513,3.2508,3.2514,3.2519,3.2522,3.2539,3.2545,3.2555,3.2532,3.2555,3.2549,3.2555,3.2555,3.2555,3.2527,3.2526,3.2526,3.2525,0,3.2374,3.2386,3.2392,3.2402,3.2406,3.2415,3.2425,3.2424,3.2454,3.2455,3.2459,3.2464,3.2472,3.2477,3.2486,3.2495,3.2515,3.2518,3.2514,3.2507,3.25,3.2504,3.2574,3.2519,3.252,3.252,3.252,3.2521,3.2328,3.2325,3.2342,3.2348,3.2358,3.2367,3.2366,3.2383,3.2387,3.2397,3.2412,3.2414,3.2428,3.2442,3.245,3.2451,3.2463,3.2458,3.2456,3.2455,3.2451,3.25,3.2453,3.2453,3.2453,3.2453,3.2454,0,3.2272,3.2285,3.229,3.2304,3.2308,3.2328,3.234,3.2342,3.2344,3.2356,3.2362,3.2366,3.2371,3.239,3.2397,3.2394,3.2403,3.2395,3.2396,3.2397,3.244,3.2443,3.2388,3.2388,3.2388,3.2388,3.2388,3.2388,3.2243,3.2239,3.2253,3.2255,3.2267,3.227,3.2276,3.2284,3.2294,3.2299,3.2304,3.2316,3.2331,3.234,3.2345,3.235,3.2352,3.234,3.2348,3.2388,3.2394,3.24,3.2403,3.234,3.234,3.2306,3.2305,3.2305]}]]